Year,Month,Day,Hour,Minute,Value (Times are PST for temperature in C)
2011,10,12,00,00,11.10
2011,10,12,00,01,11.10
2011,10,12,00,02,11.10
2011,10,12,00,03,11.10
2011,10,12,00,04,11.10
2011,10,12,00,05,11.10
2011,10,12,00,06,11.10
2011,10,12,00,07,11.10
2011,10,12,00,08,11.10
2011,10,12,00,09,11.10
2011,10,12,00,10,11.10
2011,10,12,00,11,11.10
2011,10,12,00,12,11.10
2011,10,12,00,13,11.10
2011,10,12,00,14,11.10
2011,10,12,00,15,11.10
2011,10,12,00,16,11.10
2011,10,12,00,17,11.10
2011,10,12,00,18,11.20
2011,10,12,00,19,11.20
2011,10,12,00,20,11.20
2011,10,12,00,21,11.30
2011,10,12,00,22,11.40
2011,10,12,00,23,11.40
2011,10,12,00,24,11.40
2011,10,12,00,25,11.40
2011,10,12,00,26,11.40
2011,10,12,00,27,11.40
2011,10,12,00,28,11.50
2011,10,12,00,29,11.50
2011,10,12,00,30,11.50
2011,10,12,00,31,11.50
2011,10,12,00,32,11.50
2011,10,12,00,33,11.50
2011,10,12,00,34,11.50
2011,10,12,00,35,11.50
2011,10,12,00,36,11.50
2011,10,12,00,37,11.50
2011,10,12,00,38,11.50
2011,10,12,00,39,11.50
2011,10,12,00,40,11.60
2011,10,12,00,41,11.60
2011,10,12,00,42,11.60
2011,10,12,00,43,11.60
2011,10,12,00,44,11.60
2011,10,12,00,45,11.60
2011,10,12,00,46,11.70
2011,10,12,00,47,11.70
2011,10,12,00,48,11.70
2011,10,12,00,49,11.80
2011,10,12,00,50,11.80
2011,10,12,00,51,11.80
2011,10,12,00,52,11.80
2011,10,12,00,53,11.80
2011,10,12,00,54,11.80
2011,10,12,00,55,11.80
2011,10,12,00,56,11.80
2011,10,12,00,57,11.80
2011,10,12,00,58,11.80
2011,10,12,00,59,11.80
2011,10,12,01,00,11.80
2011,10,12,01,01,11.80
2011,10,12,01,02,11.80
2011,10,12,01,03,11.80
2011,10,12,01,04,11.80
2011,10,12,01,05,11.80
2011,10,12,01,06,11.80
2011,10,12,01,07,11.90
2011,10,12,01,08,11.90
2011,10,12,01,09,11.80
2011,10,12,01,10,11.80
2011,10,12,01,11,11.80
2011,10,12,01,12,11.80
2011,10,12,01,13,11.70
2011,10,12,01,14,11.70
2011,10,12,01,15,11.70
2011,10,12,01,16,11.70
2011,10,12,01,17,11.60
2011,10,12,01,18,11.60
2011,10,12,01,19,11.50
2011,10,12,01,20,11.50
2011,10,12,01,21,11.40
2011,10,12,01,22,11.40
2011,10,12,01,23,11.30
2011,10,12,01,24,11.30
2011,10,12,01,25,11.30
2011,10,12,01,26,11.30
2011,10,12,01,27,11.20
2011,10,12,01,28,11.20
2011,10,12,01,29,11.10
2011,10,12,01,30,11.10
2011,10,12,01,31,11.00
2011,10,12,01,32,10.90
2011,10,12,01,33,10.90
2011,10,12,01,34,10.90
2011,10,12,01,35,10.90
2011,10,12,01,36,10.90
2011,10,12,01,37,10.80
2011,10,12,01,38,10.80
2011,10,12,01,39,10.80
2011,10,12,01,40,10.80
2011,10,12,01,41,10.70
2011,10,12,01,42,10.70
2011,10,12,01,43,10.60
2011,10,12,01,44,10.60
2011,10,12,01,45,10.60
2011,10,12,01,46,10.60
2011,10,12,01,47,10.60
2011,10,12,01,48,10.60
2011,10,12,01,49,10.60
2011,10,12,01,50,10.60
2011,10,12,01,51,10.60
2011,10,12,01,52,10.50
2011,10,12,01,53,10.50
2011,10,12,01,54,10.50
2011,10,12,01,55,10.40
2011,10,12,01,56,10.40
2011,10,12,01,57,10.40
2011,10,12,01,58,10.30
2011,10,12,01,59,10.30
2011,10,12,02,00,10.30
2011,10,12,02,01,10.20
2011,10,12,02,02,10.20
2011,10,12,02,03,10.20
2011,10,12,02,04,10.20
2011,10,12,02,05,10.10
2011,10,12,02,06,10.10
2011,10,12,02,07,10.10
2011,10,12,02,08,10.10
2011,10,12,02,09,10.10
2011,10,12,02,10,10.10
2011,10,12,02,11,10.10
2011,10,12,02,12,10.20
2011,10,12,02,13,10.20
2011,10,12,02,14,10.20
2011,10,12,02,15,10.20
2011,10,12,02,16,10.20
2011,10,12,02,17,10.20
2011,10,12,02,18,10.20
2011,10,12,02,19,10.10
2011,10,12,02,20,10.10
2011,10,12,02,21,10.00
2011,10,12,02,22,10.00
2011,10,12,02,23,9.90
2011,10,12,02,24,9.90
2011,10,12,02,25,9.90
2011,10,12,02,26,9.80
2011,10,12,02,27,9.80
2011,10,12,02,28,9.80
2011,10,12,02,29,9.80
2011,10,12,02,30,9.80
2011,10,12,02,31,9.80
2011,10,12,02,32,9.80
2011,10,12,02,33,9.80
2011,10,12,02,34,9.80
2011,10,12,02,35,9.80
2011,10,12,02,36,9.80
2011,10,12,02,37,9.80
2011,10,12,02,38,9.80
2011,10,12,02,39,9.80
2011,10,12,02,40,9.80
2011,10,12,02,41,9.80
2011,10,12,02,42,9.80
2011,10,12,02,43,9.80
2011,10,12,02,44,9.80
2011,10,12,02,45,9.80
2011,10,12,02,46,9.80
2011,10,12,02,47,9.80
2011,10,12,02,48,9.80
2011,10,12,02,49,9.80
2011,10,12,02,50,9.80
2011,10,12,02,51,9.80
2011,10,12,02,52,9.80
2011,10,12,02,53,9.70
2011,10,12,02,54,9.70
2011,10,12,02,55,9.70
2011,10,12,02,56,9.70
2011,10,12,02,57,9.70
2011,10,12,02,58,9.60
2011,10,12,02,59,9.60
2011,10,12,03,00,9.60
2011,10,12,03,01,9.60
2011,10,12,03,02,9.60
2011,10,12,03,03,9.60
2011,10,12,03,04,9.60
2011,10,12,03,05,9.50
2011,10,12,03,06,9.50
2011,10,12,03,07,9.50
2011,10,12,03,08,9.40
2011,10,12,03,09,9.40
2011,10,12,03,10,9.40
2011,10,12,03,11,9.40
2011,10,12,03,12,9.30
2011,10,12,03,13,9.30
2011,10,12,03,14,9.30
2011,10,12,03,15,9.30
2011,10,12,03,16,9.30
2011,10,12,03,17,9.30
2011,10,12,03,18,9.30
2011,10,12,03,19,9.30
2011,10,12,03,20,9.30
2011,10,12,03,21,9.30
2011,10,12,03,22,9.20
2011,10,12,03,23,9.20
2011,10,12,03,24,9.10
2011,10,12,03,25,9.10
2011,10,12,03,26,9.10
2011,10,12,03,27,9.00
2011,10,12,03,28,9.00
2011,10,12,03,29,9.00
2011,10,12,03,30,9.00
2011,10,12,03,31,9.10
2011,10,12,03,32,9.10
2011,10,12,03,33,9.10
2011,10,12,03,34,9.20
2011,10,12,03,35,9.30
2011,10,12,03,36,9.30
2011,10,12,03,37,9.40
2011,10,12,03,38,9.50
2011,10,12,03,39,9.60
2011,10,12,03,40,9.70
2011,10,12,03,41,9.70
2011,10,12,03,42,9.80
2011,10,12,03,43,9.80
2011,10,12,03,44,9.80
2011,10,12,03,45,9.80
2011,10,12,03,46,9.80
2011,10,12,03,47,9.70
2011,10,12,03,48,9.70
2011,10,12,03,49,9.70
2011,10,12,03,50,9.70
2011,10,12,03,51,9.70
2011,10,12,03,52,9.70
2011,10,12,03,53,9.70
2011,10,12,03,54,9.70
2011,10,12,03,55,9.70
2011,10,12,03,56,9.70
2011,10,12,03,57,9.70
2011,10,12,03,58,9.70
2011,10,12,03,59,9.60
2011,10,12,04,00,9.60
2011,10,12,04,01,9.60
2011,10,12,04,02,9.60
2011,10,12,04,03,9.60
2011,10,12,04,04,9.60
2011,10,12,04,05,9.60
2011,10,12,04,06,9.50
2011,10,12,04,07,9.50
2011,10,12,04,08,9.50
2011,10,12,04,09,9.50
2011,10,12,04,10,9.40
2011,10,12,04,11,9.40
2011,10,12,04,12,9.40
2011,10,12,04,13,9.30
2011,10,12,04,14,9.30
2011,10,12,04,15,9.30
2011,10,12,04,16,9.30
2011,10,12,04,17,9.30
2011,10,12,04,18,9.30
2011,10,12,04,19,9.30
2011,10,12,04,20,9.20
2011,10,12,04,21,9.20
2011,10,12,04,22,9.20
2011,10,12,04,23,9.20
2011,10,12,04,24,9.20
2011,10,12,04,25,9.10
2011,10,12,04,26,9.10
2011,10,12,04,27,9.00
2011,10,12,04,28,8.90
2011,10,12,04,29,8.90
2011,10,12,04,30,8.90
2011,10,12,04,31,8.80
2011,10,12,04,32,8.80
2011,10,12,04,33,8.80
2011,10,12,04,34,8.80
2011,10,12,04,35,8.70
2011,10,12,04,36,8.70
2011,10,12,04,37,8.70
2011,10,12,04,38,8.70
2011,10,12,04,39,8.70
2011,10,12,04,40,8.70
2011,10,12,04,41,8.70
2011,10,12,04,42,8.70
2011,10,12,04,43,8.70
2011,10,12,04,44,8.70
2011,10,12,04,45,8.70
2011,10,12,04,46,8.70
2011,10,12,04,47,8.60
2011,10,12,04,48,8.60
2011,10,12,04,49,8.60
2011,10,12,04,50,8.60
2011,10,12,04,51,8.60
2011,10,12,04,52,8.60
2011,10,12,04,53,8.60
2011,10,12,04,54,8.50
2011,10,12,04,55,8.50
2011,10,12,04,56,8.50
2011,10,12,04,57,8.40
2011,10,12,04,58,8.40
2011,10,12,04,59,8.40
2011,10,12,05,00,8.40
2011,10,12,05,01,8.40
2011,10,12,05,02,8.30
2011,10,12,05,03,8.30
2011,10,12,05,04,8.30
2011,10,12,05,05,8.30
2011,10,12,05,06,8.30
2011,10,12,05,07,8.30
2011,10,12,05,08,8.30
2011,10,12,05,09,8.30
2011,10,12,05,10,8.30
2011,10,12,05,11,8.30
2011,10,12,05,12,8.20
2011,10,12,05,13,8.20
2011,10,12,05,14,8.20
2011,10,12,05,15,8.20
2011,10,12,05,16,8.20
2011,10,12,05,17,8.20
2011,10,12,05,18,8.10
2011,10,12,05,19,8.10
2011,10,12,05,20,8.10
2011,10,12,05,21,8.10
2011,10,12,05,22,8.10
2011,10,12,05,23,8.10
2011,10,12,05,24,8.10
2011,10,12,05,25,8.10
2011,10,12,05,26,8.10
2011,10,12,05,27,8.10
2011,10,12,05,28,8.10
2011,10,12,05,29,8.10
2011,10,12,05,30,8.10
2011,10,12,05,31,8.10
2011,10,12,05,32,8.00
2011,10,12,05,33,8.00
2011,10,12,05,34,7.90
2011,10,12,05,35,7.90
2011,10,12,05,36,7.90
2011,10,12,05,37,7.90
2011,10,12,05,38,7.90
2011,10,12,05,39,7.90
2011,10,12,05,40,7.90
2011,10,12,05,41,7.90
2011,10,12,05,42,8.00
2011,10,12,05,43,8.00
2011,10,12,05,44,8.00
2011,10,12,05,45,8.10
2011,10,12,05,46,8.10
2011,10,12,05,47,8.20
2011,10,12,05,48,8.30
2011,10,12,05,49,8.30
2011,10,12,05,50,8.40
2011,10,12,05,51,8.40
2011,10,12,05,52,8.40
2011,10,12,05,53,8.40
2011,10,12,05,54,8.40
2011,10,12,05,55,8.40
2011,10,12,05,56,8.30
2011,10,12,05,57,8.30
2011,10,12,05,58,8.30
2011,10,12,05,59,8.30
2011,10,12,06,00,8.30
2011,10,12,06,01,8.30
2011,10,12,06,02,8.30
2011,10,12,06,03,8.30
2011,10,12,06,04,8.30
2011,10,12,06,05,8.20
2011,10,12,06,06,8.20
2011,10,12,06,07,8.20
2011,10,12,06,08,8.20
2011,10,12,06,09,8.20
2011,10,12,06,10,8.20
2011,10,12,06,11,8.20
2011,10,12,06,12,8.30
2011,10,12,06,13,8.30
2011,10,12,06,14,8.30
2011,10,12,06,15,8.30
2011,10,12,06,16,8.30
2011,10,12,06,17,8.30
2011,10,12,06,18,8.30
2011,10,12,06,19,8.30
2011,10,12,06,20,8.30
2011,10,12,06,21,8.30
2011,10,12,06,22,8.40
2011,10,12,06,23,8.40
2011,10,12,06,24,8.40
2011,10,12,06,25,8.40
2011,10,12,06,26,8.40
2011,10,12,06,27,8.40
2011,10,12,06,28,8.40
2011,10,12,06,29,8.40
2011,10,12,06,30,8.40
2011,10,12,06,31,8.50
2011,10,12,06,32,8.50
2011,10,12,06,33,8.50
2011,10,12,06,34,8.60
2011,10,12,06,35,8.60
2011,10,12,06,36,8.60
2011,10,12,06,37,8.60
2011,10,12,06,38,8.60
2011,10,12,06,39,8.60
2011,10,12,06,40,8.70
2011,10,12,06,41,8.70
2011,10,12,06,42,8.80
2011,10,12,06,43,8.80
2011,10,12,06,44,8.80
2011,10,12,06,45,8.80
2011,10,12,06,46,8.80
2011,10,12,06,47,8.80
2011,10,12,06,48,8.90
2011,10,12,06,49,8.80
2011,10,12,06,50,8.80
2011,10,12,06,51,8.80
2011,10,12,06,52,8.80
2011,10,12,06,53,8.80
2011,10,12,06,54,8.80
2011,10,12,06,55,8.80
2011,10,12,06,56,8.80
2011,10,12,06,57,8.80
2011,10,12,06,58,8.90
2011,10,12,06,59,8.90
2011,10,12,07,00,8.90
2011,10,12,07,01,8.90
2011,10,12,07,02,8.90
2011,10,12,07,03,8.80
2011,10,12,07,04,8.80
2011,10,12,07,05,8.80
2011,10,12,07,06,8.80
2011,10,12,07,07,8.80
2011,10,12,07,08,8.80
2011,10,12,07,09,8.70
2011,10,12,07,10,8.70
2011,10,12,07,11,8.70
2011,10,12,07,12,8.70
2011,10,12,07,13,8.70
2011,10,12,07,14,8.70
2011,10,12,07,15,8.60
2011,10,12,07,16,8.60
2011,10,12,07,17,8.60
2011,10,12,07,18,8.60
2011,10,12,07,19,8.50
2011,10,12,07,20,8.50
2011,10,12,07,21,8.50
2011,10,12,07,22,8.50
2011,10,12,07,23,8.40
2011,10,12,07,24,8.40
2011,10,12,07,25,8.40
2011,10,12,07,26,8.40
2011,10,12,07,27,8.30
2011,10,12,07,28,8.30
2011,10,12,07,29,8.40
2011,10,12,07,30,8.30
2011,10,12,07,31,8.30
2011,10,12,07,32,8.30
2011,10,12,07,33,8.20
2011,10,12,07,34,8.20
2011,10,12,07,35,8.20
2011,10,12,07,36,8.20
2011,10,12,07,37,8.20
2011,10,12,07,38,8.20
2011,10,12,07,39,8.20
2011,10,12,07,40,8.20
2011,10,12,07,41,8.20
2011,10,12,07,42,8.20
2011,10,12,07,43,8.20
2011,10,12,07,44,8.10
2011,10,12,07,45,8.10
2011,10,12,07,46,8.10
2011,10,12,07,47,8.10
2011,10,12,07,48,8.20
2011,10,12,07,49,8.20
2011,10,12,07,50,8.30
2011,10,12,07,51,8.30
2011,10,12,07,52,8.40
2011,10,12,07,53,8.40
2011,10,12,07,54,8.50
2011,10,12,07,55,8.50
2011,10,12,07,56,8.50
2011,10,12,07,57,8.50
2011,10,12,07,58,8.50
2011,10,12,07,59,8.60
2011,10,12,08,00,8.60
2011,10,12,08,01,8.70
2011,10,12,08,02,8.70
2011,10,12,08,03,8.70
2011,10,12,08,04,8.70
2011,10,12,08,05,8.80
2011,10,12,08,06,8.80
2011,10,12,08,07,8.80
2011,10,12,08,08,8.80
2011,10,12,08,09,8.80
2011,10,12,08,10,8.70
2011,10,12,08,11,8.70
2011,10,12,08,12,8.60
2011,10,12,08,13,8.60
2011,10,12,08,14,8.60
2011,10,12,08,15,8.60
2011,10,12,08,16,8.60
2011,10,12,08,17,8.60
2011,10,12,08,18,8.60
2011,10,12,08,19,8.70
2011,10,12,08,20,8.80
2011,10,12,08,21,8.90
2011,10,12,08,22,9.00
2011,10,12,08,23,9.20
2011,10,12,08,24,9.30
2011,10,12,08,25,9.40
2011,10,12,08,26,9.50
2011,10,12,08,27,9.70
2011,10,12,08,28,9.80
2011,10,12,08,29,9.80
2011,10,12,08,30,9.90
2011,10,12,08,31,9.90
2011,10,12,08,32,9.90
2011,10,12,08,33,9.90
2011,10,12,08,34,10.00
2011,10,12,08,35,10.00
2011,10,12,08,36,10.00
2011,10,12,08,37,10.10
2011,10,12,08,38,10.10
2011,10,12,08,39,10.10
2011,10,12,08,40,10.20
2011,10,12,08,41,10.20
2011,10,12,08,42,10.20
2011,10,12,08,43,10.30
2011,10,12,08,44,10.30
2011,10,12,08,45,10.30
2011,10,12,08,46,10.30
2011,10,12,08,47,10.30
2011,10,12,08,48,10.30
2011,10,12,08,49,10.30
2011,10,12,08,50,10.40
2011,10,12,08,51,10.40
2011,10,12,08,52,10.40
2011,10,12,08,53,10.40
2011,10,12,08,54,10.50
2011,10,12,08,55,10.50
2011,10,12,08,56,10.60
2011,10,12,08,57,10.60
2011,10,12,08,58,10.60
2011,10,12,08,59,10.60
2011,10,12,09,00,10.60
2011,10,12,09,01,10.70
2011,10,12,09,02,10.70
2011,10,12,09,03,10.70
2011,10,12,09,04,10.60
2011,10,12,09,05,10.60
2011,10,12,09,06,10.60
2011,10,12,09,07,10.50
2011,10,12,09,08,10.50
2011,10,12,09,09,10.40
2011,10,12,09,10,10.30
2011,10,12,09,11,10.20
2011,10,12,09,12,10.20
2011,10,12,09,13,10.10
2011,10,12,09,14,10.10
2011,10,12,09,15,10.10
2011,10,12,09,16,10.00
2011,10,12,09,17,10.00
2011,10,12,09,18,10.00
2011,10,12,09,19,9.90
2011,10,12,09,20,9.90
2011,10,12,09,21,9.90
2011,10,12,09,22,9.90
2011,10,12,09,23,9.90
2011,10,12,09,24,9.90
2011,10,12,09,25,9.90
2011,10,12,09,26,9.90
2011,10,12,09,27,10.00
2011,10,12,09,28,10.00
2011,10,12,09,29,10.00
2011,10,12,09,30,10.00
2011,10,12,09,31,9.90
2011,10,12,09,32,9.90
2011,10,12,09,33,9.90
2011,10,12,09,34,9.90
2011,10,12,09,35,9.90
2011,10,12,09,36,9.80
2011,10,12,09,37,9.80
2011,10,12,09,38,9.80
2011,10,12,09,39,9.80
2011,10,12,09,40,9.80
2011,10,12,09,41,9.80
2011,10,12,09,42,9.80
2011,10,12,09,43,9.80
2011,10,12,09,44,9.80
2011,10,12,09,45,9.80
2011,10,12,09,46,9.90
2011,10,12,09,47,9.90
2011,10,12,09,48,9.90
2011,10,12,09,49,10.00
2011,10,12,09,50,10.00
2011,10,12,09,51,10.00
2011,10,12,09,52,10.10
2011,10,12,09,53,10.10
2011,10,12,09,54,10.10
2011,10,12,09,55,10.20
2011,10,12,09,56,10.20
2011,10,12,09,57,10.20
2011,10,12,09,58,10.20
2011,10,12,09,59,10.30
2011,10,12,10,00,10.30
2011,10,12,10,01,10.30
2011,10,12,10,02,10.40
2011,10,12,10,03,10.40
2011,10,12,10,04,10.50
2011,10,12,10,05,10.50
2011,10,12,10,06,10.60
2011,10,12,10,07,10.60
2011,10,12,10,08,10.70
2011,10,12,10,09,10.80
2011,10,12,10,10,10.80
2011,10,12,10,11,10.90
2011,10,12,10,12,11.00
2011,10,12,10,13,11.10
2011,10,12,10,14,11.20
2011,10,12,10,15,11.40
2011,10,12,10,16,11.50
2011,10,12,10,17,11.60
2011,10,12,10,18,11.60
2011,10,12,10,19,11.70
2011,10,12,10,20,11.80
2011,10,12,10,21,11.80
2011,10,12,10,22,11.90
2011,10,12,10,23,12.00
2011,10,12,10,24,12.10
2011,10,12,10,25,12.20
2011,10,12,10,26,12.20
2011,10,12,10,27,12.30
2011,10,12,10,28,12.30
2011,10,12,10,29,12.50
2011,10,12,10,30,12.50
2011,10,12,10,31,12.60
2011,10,12,10,32,12.70
2011,10,12,10,33,12.70
2011,10,12,10,34,12.80
2011,10,12,10,35,12.80
2011,10,12,10,36,12.90
2011,10,12,10,37,13.00
2011,10,12,10,38,13.00
2011,10,12,10,39,13.00
2011,10,12,10,40,13.10
2011,10,12,10,41,13.10
2011,10,12,10,42,13.10
2011,10,12,10,43,13.10
2011,10,12,10,44,13.20
2011,10,12,10,45,13.20
2011,10,12,10,46,13.30
2011,10,12,10,47,13.30
2011,10,12,10,48,13.40
2011,10,12,10,49,13.50
2011,10,12,10,50,13.50
2011,10,12,10,51,13.60
2011,10,12,10,52,13.70
2011,10,12,10,53,13.70
2011,10,12,10,54,13.70
2011,10,12,10,55,13.80
2011,10,12,10,56,13.80
2011,10,12,10,57,13.90
2011,10,12,10,58,13.90
2011,10,12,10,59,14.00
2011,10,12,11,00,14.00
2011,10,12,11,01,14.10
2011,10,12,11,02,14.10
2011,10,12,11,03,14.10
2011,10,12,11,04,14.10
2011,10,12,11,05,14.10
2011,10,12,11,06,14.10
2011,10,12,11,07,14.20
2011,10,12,11,08,14.20
2011,10,12,11,09,14.30
2011,10,12,11,10,14.30
2011,10,12,11,11,14.40
2011,10,12,11,12,14.50
2011,10,12,11,13,14.60
2011,10,12,11,14,14.60
2011,10,12,11,15,14.60
2011,10,12,11,16,14.60
2011,10,12,11,17,14.60
2011,10,12,11,18,14.60
2011,10,12,11,19,14.50
2011,10,12,11,20,14.50
2011,10,12,11,21,14.50
2011,10,12,11,22,14.60
2011,10,12,11,23,14.60
2011,10,12,11,24,14.70
2011,10,12,11,25,14.70
2011,10,12,11,26,14.70
2011,10,12,11,27,14.60
2011,10,12,11,28,14.60
2011,10,12,11,29,14.60
2011,10,12,11,30,14.60
2011,10,12,11,31,14.60
2011,10,12,11,32,14.50
2011,10,12,11,33,14.50
2011,10,12,11,34,14.40
2011,10,12,11,35,14.40
2011,10,12,11,36,14.40
2011,10,12,11,37,14.30
2011,10,12,11,38,14.30
2011,10,12,11,39,14.30
2011,10,12,11,40,14.30
2011,10,12,11,41,14.40
2011,10,12,11,42,14.40
2011,10,12,11,43,14.50
2011,10,12,11,44,14.50
2011,10,12,11,45,14.60
2011,10,12,11,46,14.60
2011,10,12,11,47,14.60
2011,10,12,11,48,14.70
2011,10,12,11,49,14.70
2011,10,12,11,50,14.80
2011,10,12,11,51,14.70
2011,10,12,11,52,14.70
2011,10,12,11,53,14.60
2011,10,12,11,54,14.40
2011,10,12,11,55,14.30
2011,10,12,11,56,14.10
2011,10,12,11,57,13.90
2011,10,12,11,58,13.70
2011,10,12,11,59,13.60
2011,10,12,12,00,13.60
2011,10,12,12,01,13.60
2011,10,12,12,02,13.60
2011,10,12,12,03,13.60
2011,10,12,12,04,13.70
2011,10,12,12,05,13.70
2011,10,12,12,06,13.80
2011,10,12,12,07,13.90
2011,10,12,12,08,13.90
2011,10,12,12,09,14.10
2011,10,12,12,10,14.20
2011,10,12,12,11,14.20
2011,10,12,12,12,14.30
2011,10,12,12,13,14.30
2011,10,12,12,14,14.40
2011,10,12,12,15,14.40
2011,10,12,12,16,14.40
2011,10,12,12,17,14.40
2011,10,12,12,18,14.40
2011,10,12,12,19,14.40
2011,10,12,12,20,14.40
2011,10,12,12,21,14.50
2011,10,12,12,22,14.50
2011,10,12,12,23,14.60
2011,10,12,12,24,14.70
2011,10,12,12,25,14.70
2011,10,12,12,26,14.70
2011,10,12,12,27,14.70
2011,10,12,12,28,14.70
2011,10,12,12,29,14.80
2011,10,12,12,30,14.80
2011,10,12,12,31,14.70
2011,10,12,12,32,14.70
2011,10,12,12,33,14.70
2011,10,12,12,34,14.60
2011,10,12,12,35,14.60
2011,10,12,12,36,14.60
2011,10,12,12,37,14.50
2011,10,12,12,38,14.50
2011,10,12,12,39,14.40
2011,10,12,12,40,14.40
2011,10,12,12,41,14.30
2011,10,12,12,42,14.30
2011,10,12,12,43,14.20
2011,10,12,12,44,14.20
2011,10,12,12,45,14.10
2011,10,12,12,46,14.00
2011,10,12,12,47,14.00
2011,10,12,12,48,13.90
2011,10,12,12,49,13.90
2011,10,12,12,50,13.80
2011,10,12,12,51,13.80
2011,10,12,12,52,13.80
2011,10,12,12,53,13.80
2011,10,12,12,54,13.70
2011,10,12,12,55,13.70
2011,10,12,12,56,13.60
2011,10,12,12,57,13.60
2011,10,12,12,58,13.50
2011,10,12,12,59,13.40
2011,10,12,13,00,13.30
2011,10,12,13,01,13.30
2011,10,12,13,02,13.20
2011,10,12,13,03,13.10
2011,10,12,13,04,13.00
2011,10,12,13,05,12.90
2011,10,12,13,06,12.90
2011,10,12,13,07,12.80
2011,10,12,13,08,12.70
2011,10,12,13,09,12.70
2011,10,12,13,10,12.60
2011,10,12,13,11,12.50
2011,10,12,13,12,12.50
2011,10,12,13,13,12.40
2011,10,12,13,14,12.40
2011,10,12,13,15,12.30
2011,10,12,13,16,12.30
2011,10,12,13,17,12.20
2011,10,12,13,18,12.10
2011,10,12,13,19,12.00
2011,10,12,13,20,11.90
2011,10,12,13,21,11.80
2011,10,12,13,22,11.70
2011,10,12,13,23,11.60
2011,10,12,13,24,11.60
2011,10,12,13,25,11.50
2011,10,12,13,26,11.50
2011,10,12,13,27,11.50
2011,10,12,13,28,11.40
2011,10,12,13,29,11.40
2011,10,12,13,30,11.40
2011,10,12,13,31,11.30
2011,10,12,13,32,11.30
2011,10,12,13,33,11.30
2011,10,12,13,34,11.30
2011,10,12,13,35,11.30
2011,10,12,13,36,11.20
2011,10,12,13,37,11.20
2011,10,12,13,38,11.20
2011,10,12,13,39,11.20
2011,10,12,13,40,11.20
2011,10,12,13,41,11.20
2011,10,12,13,42,11.30
2011,10,12,13,43,11.30
2011,10,12,13,44,11.30
2011,10,12,13,45,11.30
2011,10,12,13,46,11.30
2011,10,12,13,47,11.30
2011,10,12,13,48,11.30
2011,10,12,13,49,11.30
2011,10,12,13,50,11.30
2011,10,12,13,51,11.30
2011,10,12,13,52,11.30
2011,10,12,13,53,11.30
2011,10,12,13,54,11.30
2011,10,12,13,55,11.30
2011,10,12,13,56,11.30
2011,10,12,13,57,11.30
2011,10,12,13,58,11.30
2011,10,12,13,59,11.30
2011,10,12,14,00,11.40
2011,10,12,14,01,11.40
2011,10,12,14,02,11.40
2011,10,12,14,03,11.40
2011,10,12,14,04,11.40
2011,10,12,14,05,11.40
2011,10,12,14,06,11.50
2011,10,12,14,07,11.50
2011,10,12,14,08,11.60
2011,10,12,14,09,11.60
2011,10,12,14,10,11.60
2011,10,12,14,11,11.60
2011,10,12,14,12,11.60
2011,10,12,14,13,11.70
2011,10,12,14,14,11.70
2011,10,12,14,15,11.80
2011,10,12,14,16,11.80
2011,10,12,14,17,11.90
2011,10,12,14,18,11.90
2011,10,12,14,19,12.00
2011,10,12,14,20,12.00
2011,10,12,14,21,12.10
2011,10,12,14,22,12.10
2011,10,12,14,23,12.10
2011,10,12,14,24,12.10
2011,10,12,14,25,12.20
2011,10,12,14,26,12.20
2011,10,12,14,27,12.20
2011,10,12,14,28,12.20
2011,10,12,14,29,12.20
2011,10,12,14,30,12.30
2011,10,12,14,31,12.40
2011,10,12,14,32,12.40
2011,10,12,14,33,12.50
2011,10,12,14,34,12.60
2011,10,12,14,35,12.70
2011,10,12,14,36,12.70
2011,10,12,14,37,12.80
2011,10,12,14,38,12.90
2011,10,12,14,39,12.90
2011,10,12,14,40,13.00
2011,10,12,14,41,13.00
2011,10,12,14,42,13.10
2011,10,12,14,43,13.10
2011,10,12,14,44,13.20
2011,10,12,14,45,13.30
2011,10,12,14,46,13.30
2011,10,12,14,47,13.30
2011,10,12,14,48,13.30
2011,10,12,14,49,13.30
2011,10,12,14,50,13.40
2011,10,12,14,51,13.40
2011,10,12,14,52,13.50
2011,10,12,14,53,13.60
2011,10,12,14,54,13.70
2011,10,12,14,55,13.80
2011,10,12,14,56,13.90
2011,10,12,14,57,13.90
2011,10,12,14,58,13.90
2011,10,12,14,59,13.90
2011,10,12,15,00,13.80
2011,10,12,15,01,13.70
2011,10,12,15,02,13.70
2011,10,12,15,03,13.60
2011,10,12,15,04,13.50
2011,10,12,15,05,13.40
2011,10,12,15,06,13.30
2011,10,12,15,07,13.30
2011,10,12,15,08,13.20
2011,10,12,15,09,13.20
2011,10,12,15,10,13.10
2011,10,12,15,11,13.10
2011,10,12,15,12,13.00
2011,10,12,15,13,13.00
2011,10,12,15,14,13.00
2011,10,12,15,15,12.90
2011,10,12,15,16,12.90
2011,10,12,15,17,12.90
2011,10,12,15,18,12.90
2011,10,12,15,19,12.90
2011,10,12,15,20,12.90
2011,10,12,15,21,12.90
2011,10,12,15,22,12.90
2011,10,12,15,23,12.90
2011,10,12,15,24,12.90
2011,10,12,15,25,12.90
2011,10,12,15,26,12.90
2011,10,12,15,27,12.90
2011,10,12,15,28,12.80
2011,10,12,15,29,12.80
2011,10,12,15,30,12.80
2011,10,12,15,31,12.80
2011,10,12,15,32,12.90
2011,10,12,15,33,12.90
2011,10,12,15,34,13.00
2011,10,12,15,35,13.00
2011,10,12,15,36,13.10
2011,10,12,15,37,13.10
2011,10,12,15,38,13.20
2011,10,12,15,39,13.20
2011,10,12,15,40,13.30
2011,10,12,15,41,13.30
2011,10,12,15,42,13.40
2011,10,12,15,43,13.40
2011,10,12,15,44,13.40
2011,10,12,15,45,13.50
2011,10,12,15,46,13.60
2011,10,12,15,47,13.60
2011,10,12,15,48,13.60
2011,10,12,15,49,13.60
2011,10,12,15,50,13.60
2011,10,12,15,51,13.60
2011,10,12,15,52,13.60
2011,10,12,15,53,13.60
2011,10,12,15,54,13.60
2011,10,12,15,55,13.60
2011,10,12,15,56,13.60
2011,10,12,15,57,13.60
2011,10,12,15,58,13.60
2011,10,12,15,59,13.50
2011,10,12,16,00,13.50
2011,10,12,16,01,13.50
2011,10,12,16,02,13.50
2011,10,12,16,03,13.50
2011,10,12,16,04,13.50
2011,10,12,16,05,13.40
2011,10,12,16,06,13.40
2011,10,12,16,07,13.40
2011,10,12,16,08,13.40
2011,10,12,16,09,13.40
2011,10,12,16,10,13.40
2011,10,12,16,11,13.40
2011,10,12,16,12,13.30
2011,10,12,16,13,13.30
2011,10,12,16,14,13.30
2011,10,12,16,15,13.30
2011,10,12,16,16,13.30
2011,10,12,16,17,13.20
2011,10,12,16,18,13.20
2011,10,12,16,19,13.20
2011,10,12,16,20,13.20
2011,10,12,16,21,13.10
2011,10,12,16,22,13.10
2011,10,12,16,23,13.10
2011,10,12,16,24,13.10
2011,10,12,16,25,13.10
2011,10,12,16,26,13.10
2011,10,12,16,27,13.10
2011,10,12,16,28,13.10
2011,10,12,16,29,13.10
2011,10,12,16,30,13.10
2011,10,12,16,31,13.10
2011,10,12,16,32,13.10
2011,10,12,16,33,13.10
2011,10,12,16,34,13.10
2011,10,12,16,35,13.10
2011,10,12,16,36,13.20
2011,10,12,16,37,13.20
2011,10,12,16,38,13.30
2011,10,12,16,39,13.40
2011,10,12,16,40,13.50
2011,10,12,16,41,13.60
2011,10,12,16,42,13.70
2011,10,12,16,43,13.80
2011,10,12,16,44,13.90
2011,10,12,16,45,14.00
2011,10,12,16,46,14.10
2011,10,12,16,47,14.20
2011,10,12,16,48,14.20
2011,10,12,16,49,14.30
2011,10,12,16,50,14.40
2011,10,12,16,51,14.50
2011,10,12,16,52,14.60
2011,10,12,16,53,14.60
2011,10,12,16,54,14.70
2011,10,12,16,55,14.70
2011,10,12,16,56,14.70
2011,10,12,16,57,14.70
2011,10,12,16,58,14.70
2011,10,12,16,59,14.80
2011,10,12,17,00,14.80
2011,10,12,17,01,14.80
2011,10,12,17,02,14.80
2011,10,12,17,03,14.70
2011,10,12,17,04,14.60
2011,10,12,17,05,14.60
2011,10,12,17,06,14.60
2011,10,12,17,07,14.60
2011,10,12,17,08,14.60
2011,10,12,17,09,14.60
2011,10,12,17,10,14.60
2011,10,12,17,11,14.60
2011,10,12,17,12,14.50
2011,10,12,17,13,14.50
2011,10,12,17,14,14.50
2011,10,12,17,15,14.40
2011,10,12,17,16,14.40
2011,10,12,17,17,14.40
2011,10,12,17,18,14.30
2011,10,12,17,19,14.30
2011,10,12,17,20,14.30
2011,10,12,17,21,14.30
2011,10,12,17,22,14.30
2011,10,12,17,23,14.20
2011,10,12,17,24,14.20
2011,10,12,17,25,14.20
2011,10,12,17,26,14.20
2011,10,12,17,27,14.20
2011,10,12,17,28,14.10
2011,10,12,17,29,14.10
2011,10,12,17,30,14.00
2011,10,12,17,31,13.90
2011,10,12,17,32,13.80
2011,10,12,17,33,13.80
2011,10,12,17,34,13.70
2011,10,12,17,35,13.70
2011,10,12,17,36,13.70